#timestamp,LO_Frequency,Hit,StdDev 
1583597835.7,286046984.2,P
1583597855.6,286046985.3,P
1583597875.4,286046985.8,P
1583597895.3,286046988.3,Y
1583597915.1,286047000.7,P
1583597916.0,286047000.7,N
1583597935.8,286046998.3,N
1583597955.7,286047000.1,N
1583597975.5,286047002.7,N
1583597995.3,286047000.4,N
1583598015.2,286047001.2,N
1583598035.0,286047001.1,N
1583598035.9,286047001.1,N
1583598055.8,286046999.6,N
1583598075.6,286046998.9,N
1583598095.4,286046997.5,N
1583598115.3,286046997.6,N
1583598135.1,286046995.0,N
1583598155.9,286046995.2,N
1583598175.7,286046996.4,N
1583598195.5,286046994.0,N
1583598215.4,286046994.1,N
1583598235.2,286046994.1,N
1583598255.0,286046994.2,N
1583598255.9,286046994.2,N
1583598275.8,286046994.0,N
1583598295.6,286046992.1,N
1583598315.5,286046990.1,N
1583598335.3,286046990.9,N
1583598355.1,286046990.9,N
1583598375.9,286046990.6,N
1583598395.7,286046991.0,N
1583598415.5,286046988.8,N
1583598435.4,286046989.5,N
1583598455.2,286046988.6,N
1583598475.1,286046990.1,N
1583598476.0,286046990.1,N
1583598495.8,286046990.6,N
1583598515.6,286046989.3,N
1583598535.5,286046988.7,N
1583598555.3,286046987.0,Y
1583598575.1,286046998.0,P
1583598595.9,286046995.7,N
1583598615.7,286046994.9,N
1583598635.6,286046998.0,N
1583598655.4,286046996.9,N
1583598675.2,286046995.0,Y
1583598695.1,286047001.2,P
1583598696.0,286047001.2,N
1583598715.8,286047000.8,N
1583598735.7,286046998.4,N
1583598755.5,286046998.5,N
1583598775.3,286046999.3,N
1583598795.2,286046995.1,N
1583598815.0,286046993.4,Y
1583598815.9,286046993.4,P
1583598835.7,286046996.2,N
1583598855.6,286046997.8,N
1583598875.4,286046995.1,N
1583598895.3,286046995.8,N
1583598915.1,286046993.4,Y
1583598935.8,286046996.7,P
1583598955.7,286046998.0,P
1583598975.5,286046997.7,P
1583598995.4,286046999.5,N
1583599015.2,286046999.2,N
1583599035.0,286046999.0,N
1583599035.9,286046999.0,N
1583599055.8,286046999.4,N
1583599075.6,286046999.3,N
1583599095.4,286046996.5,Y
1583599115.3,286046998.8,P
1583599135.1,286046998.3,P
1583599155.9,286046998.7,P
1583599175.7,286046998.5,Y
1583599195.5,286047000.2,P
1583599215.4,286047001.3,N
1583599235.2,286047002.5,N
1583599255.0,286047002.8,N
1583599256.0,286047002.8,N
1583599275.8,286047002.6,N
1583599295.6,286047000.3,N
1583599315.5,286046998.4,N
1583599335.3,286046998.6,N
1583599355.1,286047000.4,N
1583599375.9,286046998.1,N
1583599395.7,286046999.9,N
1583599415.6,286047000.3,N
1583599435.4,286047000.4,N
1583599455.2,286046998.3,N
1583599475.1,286046998.3,N
1583599476.0,286046998.3,N
1583599495.8,286047000.8,N
1583599515.6,286046998.9,N
1583599535.5,286046998.9,N
1583599555.3,286046997.2,N
1583599575.2,286046995.2,N
1583599595.9,286046995.8,N
1583599615.7,286046996.2,N
1583599635.6,286046997.6,N
1583599655.4,286046996.8,N
1583599675.2,286046997.4,N
1583599695.1,286046997.6,N
1583599696.0,286046997.6,N
1583599715.8,286046996.2,N
1583599735.7,286046995.6,N
1583599755.5,286046996.2,N
1583599775.3,286046993.7,N
1583599795.2,286046995.7,N
1583599815.0,286046995.5,N
1583599815.9,286046995.5,N
1583599835.8,286046997.9,N
1583599855.6,286046997.3,N
1583599875.4,286046997.7,N
1583599895.3,286046996.6,N
1583599915.1,286046997.3,N
1583599935.8,286046995.1,N
1583599955.7,286046996.2,N
1583599975.5,286046993.6,Y
1583599995.4,286046997.8,P
1583600015.2,286046999.3,N
1583600035.0,286046997.1,P
1583600035.9,286046997.1,Y
1583600055.8,286046998.8,P
1583600075.6,286047000.6,N
1583600095.4,286047001.9,N
1583600115.3,286047004.2,N
1583600135.1,286047006.0,N
1583600155.9,286047005.8,N
1583600175.7,286047003.8,N
1583600195.5,286047005.4,N
1583600215.4,286047004.4,N
1583600235.2,286047001.9,N
1583600255.0,286047001.8,N
1583600255.9,286047001.8,N
1583600275.8,286047004.0,N
1583600295.6,286047005.0,N
1583600315.5,286047004.7,N
1583600335.3,286047005.6,N
1583600355.1,286047005.6,N
1583600375.9,286047005.9,N
1583600395.7,286047004.0,N
